SAS1648 EDDH-EKCH

Flight info

Callsign SAS1648
Flight time N/A
Altitude 23000
Route LUGEG3G/33 LUGEG P605 GESKA/N0395F220 Z711 MONAK
Aircraft B736/M-SDE2E3FGHIRWXY/LB1

Departure

Time 2026-04-22 19:24
Airport Hamburg Helmut Schmidt Airport (EDDH)

Arrival

Time N/A
Airport Copenhagen Kastrup Airport (EKCH)
Time Latitude Longitude Altitude Speed Heading
2026-04-22 19:23 53.77282 10.07693 7792 ft 269 kts 61°
2026-04-22 19:24 53.78101 10.10563 8355 ft 270 kts 61°
2026-04-22 19:24 53.78919 10.13427 8924 ft 271 kts 61°
2026-04-22 19:24 53.79744 10.16310 9503 ft 273 kts 62°
2026-04-22 19:24 53.80573 10.19214 10086 ft 275 kts 62°
2026-04-22 19:25 53.81400 10.22112 10634 ft 277 kts 62°
2026-04-22 19:25 53.82245 10.25065 11179 ft 279 kts 62°
2026-04-22 19:25 53.83096 10.28050 11712 ft 281 kts 62°
2026-04-22 19:25 53.83959 10.31066 12283 ft 289 kts 62°
2026-04-22 19:26 53.84849 10.34185 12870 ft 307 kts 62°
2026-04-22 19:26 53.85806 10.37533 13472 ft 322 kts 63°
2026-04-22 19:26 53.86796 10.41012 14063 ft 329 kts 63°
2026-04-22 19:26 53.87790 10.44513 14587 ft 330 kts 63°
2026-04-22 19:27 53.88791 10.48044 15125 ft 332 kts 63°
2026-04-22 19:27 53.89794 10.51587 15669 ft 335 kts 63°
2026-04-22 19:27 53.90794 10.55117 16216 ft 337 kts 63°
2026-04-22 19:27 53.91815 10.58715 16780 ft 340 kts 63°
2026-04-22 19:28 53.92847 10.62355 17363 ft 343 kts 63°
2026-04-22 19:28 53.93899 10.66021 17941 ft 347 kts 61°
2026-04-22 19:28 53.95382 10.69247 18541 ft 349 kts 44°
2026-04-22 19:28 53.97163 10.72087 19082 ft 352 kts 43°
2026-04-22 19:29 53.98899 10.74977 19604 ft 355 kts 46°
2026-04-22 19:29 54.00563 10.78098 20147 ft 357 kts 49°
2026-04-22 19:29 54.02206 10.81295 20697 ft 359 kts 49°
2026-04-22 19:29 54.03871 10.84493 21254 ft 361 kts 49°
2026-04-22 19:30 54.04990 10.86603 21632 ft 362 kts 48°
2026-04-22 19:30 54.07270 10.90829 22415 ft 368 kts 48°
2026-04-22 19:30 54.09045 10.94089 23022 ft 375 kts 48°
2026-04-22 19:30 54.10823 10.97350 23297 ft 379 kts 48°
2026-04-22 19:31 54.12626 11.00659 23300 ft 377 kts 48°
2026-04-22 19:31 54.14399 11.03920 23301 ft 377 kts 48°
2026-04-22 19:31 54.16191 11.07228 23305 ft 377 kts 48°
2026-04-22 19:31 54.17966 11.10517 23306 ft 378 kts 49°
2026-04-22 19:32 54.19733 11.13798 23298 ft 378 kts 49°
2026-04-22 19:32 54.21523 11.17124 23295 ft 378 kts 49°
2026-04-22 19:32 54.23290 11.20431 23297 ft 378 kts 49°
2026-04-22 19:32 54.25064 11.23764 23295 ft 378 kts 49°
2026-04-22 19:33 54.26823 11.27073 23293 ft 377 kts 49°
2026-04-22 19:33 54.28597 11.30408 23293 ft 377 kts 49°
2026-04-22 19:33 54.30340 11.33690 23292 ft 376 kts 49°
2026-04-22 19:33 54.32096 11.37002 23285 ft 376 kts 49°
2026-04-22 19:34 54.33864 11.40343 23289 ft 375 kts 49°
2026-04-22 19:34 54.35599 11.43627 23279 ft 375 kts 49°
2026-04-22 19:34 54.37351 11.46945 23282 ft 375 kts 49°
2026-04-22 19:34 54.39115 11.50274 23285 ft 374 kts 49°
2026-04-22 19:35 54.40869 11.53581 23281 ft 374 kts 49°
2026-04-22 19:35 54.42619 11.56880 23280 ft 374 kts 49°
2026-04-22 19:35 54.43782 11.59076 23273 ft 374 kts 49°
2026-04-22 19:35 54.46125 11.63514 23280 ft 374 kts 49°
2026-04-22 19:36 54.47860 11.66801 23279 ft 373 kts 49°